Location: Altdamm
(53.4003°N, 14.6764°E)
Time: 17:13:11
(UTC+00:00)

Daily predictions for brighter satellites

Satellite Brightness Start Highest point End
(mag) Time Altitude Azimuth Time Altitude Azimuth Time Altitude Azimuth
USA 281 3.3 16:11:05 10° NNE 16:17:42 87° ESE 16:24:17 10° SSW
Cosmos 407 Rocket 4.2 16:14:30 10° SSE 16:19:05 33° ESE 16:23:40 10° NE
Cosmos 1844 Rocket 3.2 16:15:27 10° NNW 16:20:41 38° NE 16:25:52 10° ESE
YAOGAN 1 3.8 16:17:48 10° ESE 16:20:59 20° ENE 16:24:09 10° N
Cosmos 1455 4.4 16:18:12 10° NNW 16:21:33 30° W 16:24:53 10° SSW
Meteor 1-24 Rocket 4.1 16:18:31 10° SSW 16:24:07 67° WNW 16:29:34 10° N
Lacrosse 5 rocket 1.2 16:21:22 10° WNW 16:24:52 53° NNE 16:28:26 10° E
Cosmos 1975 Rocket 3.3 16:22:08 10° SSW 16:26:36 78° W 16:31:04 10° N
CZ-4B R/B 4.0 16:26:05 10° ESE 16:30:35 28° NE 16:35:10 10° N
Cosmos 1140 Rocket 3.8 16:25:41 10° S 16:30:37 47° ESE 16:35:34 10° NE
Cosmos 1536 Rocket 4.1 16:26:39 10° SSE 16:30:38 38° E 16:34:40 10° NNE
Cosmos 2227 4.3 16:25:01 10° NNW 16:30:51 84° ENE 16:36:38 10° SSE
Meteor PRIRODA 3.5 16:28:32 10° SSE 16:32:04 81° ENE 16:35:39 10° NNW
Cosmos 44 3.1 16:28:19 10° SW 16:32:41 89° SE 16:37:16 10° NE
Cosmos 1844 4.2 16:27:42 10° NNW 16:33:14 42° NE 16:38:42 10° ESE
CZ-4 R/B 2.9 16:30:58 10° E 16:33:36 17° ENE 16:36:12 10° NNE
AQUARIUS 4.5 16:30:03 10° S 16:34:31 74° WSW 16:39:02 10° NNW
H-2A R/B 4.2 16:32:57 10° SSW 16:37:38 32° W 16:42:27 10° NNW
Cosmos 1606 Rocket 4.1 16:35:30 10° N 16:39:29 34° ENE 16:43:26 10° SE
Cosmos 2278 4.0 16:35:15 10° S 16:40:42 50° ESE 16:46:13 10° NE
RESURS DK-1 3.1 16:37:32 10° NNW 16:41:17 32° NE 16:45:01 10° ESE
CZ-4C R/B 4.3 16:38:07 10° NE 16:41:24 25° E 16:44:31 10° SSE
Cosmos 2228 3.0 16:39:35 10° N 16:43:47 60° ENE 16:47:58 10° SSE
Cosmos 2360 Rocket 3.6 16:42:09 10° SE 16:45:36 17° E 16:48:34 12° ENE
ISS -1.7 16:43:02 10° W 16:45:58 27° SSW 16:48:53 10° SSE
Cosmos 1408 2.9 16:42:54 10° SSE 16:46:03 37° E 16:49:17 10° NNE
NOAA 6 4.1 16:42:09 10° SSE 16:47:19 85° WSW 16:52:32 10° NNW
Cosmos 2278 Rocket 3.8 16:44:31 10° NNW 16:48:25 18° NNE 16:51:41 12° ENE
Cosmos 1633 4.2 16:48:05 10° ESE 16:49:45 14° E 16:49:45 14° E
Cosmos 2333 Rocket 3.9 16:48:13 10° ESE 16:50:21 12° E 16:51:05 12° E
Cosmos 1184 Rocket 2.4 16:48:09 10° NNW 16:50:30 64° W 16:52:49 10° S
Meteor 1-21 Rocket 4.2 16:47:16 10° S 16:52:51 64° E 16:58:22 10° NNE
Cosmos 1892 3.4 16:49:34 10° SSE 16:52:54 31° E 16:56:15 10° NNE
COSMO-SKYMED 1 2.9 16:49:54 10° NNE 16:54:04 43° E 16:58:13 10° S
Cosmos 2322 Rocket 3.1 16:52:02 10° SSE 16:56:41 28° ESE 17:01:00 12° NE
COSMOS 2455 3.0 16:53:13 10° SW 16:59:15 80° NW 17:05:20 10° NE
USA 290 2.3 16:56:47 10° SSW 17:00:00 80° WNW 17:03:15 10° NNE
Meteor 2-1 Rocket 4.3 16:55:09 10° NNW 17:01:00 88° ENE 17:06:41 10° SSE
CZ-4B R/B 3.2 16:57:09 10° S 17:01:11 67° WSW 17:05:02 10° NNW
Cosmos 1655 Rocket 4.2 16:57:03 10° NNW 17:03:21 76° W 17:09:33 10° S
Cosmos 468 Rocket 3.9 16:58:09 10° NNW 17:03:21 65° ENE 17:08:28 10° SE
Cosmos 2369 Rocket 4.3 17:01:16 10° NNW 17:03:46 13° N 17:06:16 10° NNE
SL-4 R/B 1.8 17:02:01 10° WSW 17:05:28 63° S 17:07:55 19° E
Cosmos 1825 3.0 17:03:25 10° SSE 17:06:36 28° E 17:09:33 11° NNE
Cosmos 1703 4.4 17:03:46 10° SSW 17:07:26 43° WNW 17:11:07 10° N
SL-16 R/B 2.5 17:04:54 10° S 17:10:16 46° ESE 17:15:32 11° NE
Cosmos 1726 Rocket 3.6 17:07:55 10° N 17:12:10 52° ENE 17:16:23 10° SSE
ATLAS 5 CENTAUR R/B 3.0 17:10:36 10° WNW 17:14:04 27° NNW 17:17:22 13° NE
BlueWalker 3 1.9 17:10:13 10° WSW 17:14:06 82° S 17:16:24 23° E
Cosmos 1954 Rocket 4.3 17:11:00 10° S 17:15:56 43° ESE 17:20:40 11° NE
Cosmos 1340 Rocket 3.1 17:16:44 10° SSW 17:20:36 68° WNW 17:24:32 10° N
Cosmos 1763 Rocket 3.6 17:17:12 10° NNW 17:22:26 80° WSW 17:27:34 10° SSE
Cosmos 1606 4.3 17:20:01 10° NNE 17:21:42 18° NE 17:21:42 18° NE
PAYLOAD B 4.1 17:18:05 10° SSE 17:23:37 81° ENE 17:29:09 10° NNW
Cosmos 1980 Rocket 2.9 17:18:07 10° SW 17:23:39 54° NW 17:29:16 10° NNE
Cosmos 2369 4.4 17:18:54 10° SW 17:24:26 53° NW 17:30:02 10° NNE
Okean O Rocket 1.9 17:20:27 10° SE 17:24:35 42° ENE 17:28:47 10° N
Okean-O 4.0 17:25:31 20° NE 17:25:31 20° NE 17:28:20 10° N
CSL-04 Rocket 4.4 17:22:59 20° ESE 17:25:40 30° ENE 17:30:18 10° N
SL-08 ROCKET BODY 4.5 17:19:50 10° NNW 17:25:45 79° W 17:31:35 10° S
ATLAS 2AS CENTAUR R/B 3.1 17:19:16 10° NW 17:26:18 65° SW 17:32:54 10° SSE
Meteor 1-27 4.3 17:20:34 10° N 17:26:19 57° ENE 17:31:57 10° SSE
IRIDIUM 104 4.5 17:21:19 10° N 17:26:24 49° E 17:31:28 10° SSE
Cosmos 1340 3.0 17:23:07 10° N 17:26:35 38° ENE 17:28:24 22° SE
ATLAS CENTAUR R/B 1.9 17:22:40 10° SW 17:27:19 65° NW 17:30:38 18° NE
Cosmos 2251 Rocket 4.1 17:23:22 10° SW 17:28:41 61° WNW 17:34:02 10° NNE
Cosmos 1697 Rocket 4.2 17:24:44 10° WSW 17:29:48 32° NW 17:34:52 10° NNE
Lacrosse 4 Rocket 3.6 17:31:22 10° NNW 17:33:27 13° N 17:34:36 12° NNE
Cosmos 1943 Rocket 3.8 17:29:48 10° NNW 17:33:30 17° NNE 17:35:03 16° NE
Cosmos 841 Rocket 3.5 17:28:47 10° NNW 17:34:02 59° ENE 17:38:59 11° SE
IRIDIUM 114 4.3 17:30:24 10° N 17:35:35 58° E 17:40:43 10° SSE
Cosmos 2237 4.3 17:30:15 10° S 17:35:50 57° ESE 17:40:12 17° NE
Cosmos 1869 3.2 17:33:49 10° N 17:37:40 59° ENE 17:41:32 10° SSE
Cosmos 1553 Rocket 4.1 17:32:33 10° SSE 17:38:24 51° E 17:44:21 10° NNE
SL-08 R/B 4.4 17:33:15 10° N 17:39:30 71° ENE 17:45:47 10° SSE
Cosmos 540 Rocket 3.4 17:34:26 10° NNW 17:39:38 87° WSW 17:44:46 10° SSE
SKYMED 2 3.8 17:37:56 10° N 17:42:17 71° WNW 17:46:37 10° SSW
Cosmos 1461 3.6 17:40:03 10° S 17:43:58 36° ESE 17:44:28 35° ESE
IRIDIUM 103 4.2 17:39:32 10° N 17:44:47 68° E 17:49:58 10° SSE
MINOTAUR 4 R/B 4.3 17:46:07 43° SE 17:46:07 43° SE 17:48:57 10° S
Lacrosse 5 2.4 17:41:14 10° SSW 17:46:01 42° SE 17:47:30 34° E
Cosmos 2058 Rocket 2.9 17:42:33 10° N 17:46:56 67° ENE 17:51:20 10° SSE
Gblst 52 Del rocket 4.4 17:41:52 10° SW 17:47:16 51° SSE 17:49:26 32° E
Landsat 7 4.2 17:51:16 38° ENE 17:51:41 39° ENE 17:56:05 10° N
PSLV R/B 4.3 17:51:11 10° S 17:54:47 55° WSW 17:58:28 10° NNW
YAOGAN 1 2.9 17:52:21 10° S 17:56:38 66° WSW 18:00:58 10° NNW
Cosmos 1607 4.4 17:51:18 10° WSW 17:57:22 59° NW 18:01:45 20° NE
Cosmos 676 Rocket 3.9 17:53:51 10° SSW 17:59:08 81° ESE 18:03:02 19° NNE
SJ-6B 3.2 17:59:49 43° NE 17:59:49 43° NE 18:03:01 10° N
Cosmos 407 Rocket 4.4 17:55:59 10° SW 18:00:56 47° NW 18:05:55 10° NNE
Resurs 1-3 4.2 18:01:58 38° NE 18:01:58 38° NE 18:05:20 10° N
IRIDIUM 106 4.3 17:57:50 10° N 18:03:06 88° W 18:08:19 10° S
Lacrosse 5 rocket 1.5 18:00:16 10° WNW 18:03:47 55° SSW 18:04:27 46° S
Meteor 1-11 4.4 17:58:09 10° SSW 18:03:58 77° WNW 18:09:47 10° NNE
Cosmos 1844 Rocket 3.4 17:59:22 10° NW 18:04:47 53° WSW 18:10:10 10° S
CZ-4 R/B 1.5 18:03:54 10° S 18:08:01 76° WSW 18:12:06 10° NNW
APEX 4.5 18:02:42 10° SW 18:08:42 68° NW 18:12:32 20° NNE
CZ-4B R/B 3.6 18:05:28 10° S 18:10:47 64° WSW 18:16:14 10° NNW
S3M 4.0 18:06:50 10° SSE 18:13:02 57° E 18:19:16 10° NNE
IGS 5A 3.3 18:15:33 54° SSE 18:16:28 88° ENE 18:20:37 10° NNW
RESURS DK-1 3.5 18:15:26 10° NW 18:19:20 42° WSW 18:21:55 19° S
IRS-1C Rocket 4.2 18:22:32 52° ENE 18:22:32 52° ENE 18:27:26 10° N
Cosmos 1633 3.2 18:20:17 10° SSW 18:23:16 49° W 18:23:16 49° W
GEOS 3 Rocket 4.3 18:24:43 38° NE 18:25:04 38° NNE 18:29:57 10° NW
Cosmos 2360 Rocket 2.0 18:23:05 10° SSW 18:28:44 81° ESE 18:30:24 48° NE
Cosmos 2219 Rocket 3.3 18:24:15 10° S 18:27:04 28° SSE 18:27:04 28° SSE
Cosmos 1892 Rocket 4.2 18:28:01 10° SSW 18:32:21 56° WNW 18:36:42 10° N
Cosmos 2333 Rocket 2.2 18:27:54 10° SSW 18:33:11 61° SE 18:33:11 61° SE
Cosmos 2278 Rocket 2.5 18:28:23 10° NNW 18:33:33 48° NE 18:33:33 48° NE
Resurs 01 Rocket 3.6 18:37:05 19° N 18:37:05 19° N 18:38:25 10° N
Cosmos 2322 Rocket 2.4 18:34:44 10° SW 18:40:19 66° NW 18:42:51 33° NNE
Cosmos 1825 4.0 18:38:27 10° SW 18:41:43 29° WNW 18:44:06 15° NNW
SL-4 R/B 3.3 18:41:05 10° W 18:43:14 33° WSW 18:43:14 33° WSW
COSMOS 2455 4.3 18:40:46 10° W 18:46:04 30° NNW 18:48:58 21° NNE
Cosmos 2369 Rocket 4.0 18:46:21 10° NNW 18:49:22 18° NNE 18:49:22 18° NNE
BlueWalker 3 3.5 18:48:50 10° W 18:51:11 35° W 18:51:11 35° W
SPOT 1/Viking Rocket 4.4 18:54:56 40° N 18:54:56 40° N 18:58:15 10° NNW
SL-16 R/B 3.2 18:49:04 10° WSW 18:54:29 43° NW 18:57:26 25° N
Cosmos 2333 4.3 18:50:01 10° SSW 18:54:41 62° SSW 18:54:41 62° SSW
ATLAS 5 CENTAUR R/B 3.4 18:55:59 10° NW 18:58:44 24° N 18:58:44 24° N
Okean O Rocket 3.5 18:57:14 10° SSW 19:01:04 29° W 19:04:56 10° NW
Okean-O 4.0 19:03:02 33° NNW 19:03:02 33° NNW 19:05:34 10° NNW
Cosmos 1814 Rocket 4.3 18:57:01 10° NNW 19:02:20 64° WSW 19:02:29 64° WSW
CSL-04 Rocket 4.1 19:04:35 48° SSW 19:05:43 59° WSW 19:11:05 10° NNW
ATLAS CENTAUR R/B 3.4 19:02:50 10° WNW 19:06:27 24° NNW 19:06:27 24° NNW
Cosmos 1980 Rocket 4.4 19:04:56 10° WNW 19:08:59 19° NNW 19:11:53 14° N
Lacrosse 4 Rocket 4.0 19:09:45 10° NNW 19:10:48 15° NNW 19:10:48 15° NNW
Cosmos 1709 Rocket 4.3 19:08:14 10° NNW 19:14:19 61° W 19:16:27 39° SSW
Cosmos 1943 Rocket 3.5 19:13:22 10° NNW 19:16:33 30° N 19:16:33 30° N
Lacrosse 5 3.2 19:23:43 10° WSW 19:26:44 36° W 19:26:44 36° W
Cosmos 2360 Rocket 4.0 20:08:29 10° W 20:12:13 27° WNW 20:12:13 27° WNW
Cosmos 2278 Rocket 4.1 20:12:41 10° NW 20:15:25 26° WNW 20:15:25 26° WNW
Cosmos 2333 Rocket 4.2 20:12:57 10° WSW 20:15:16 22° W 20:15:16 22° W
Cosmos 2322 Rocket 4.4 20:21:11 10° W 20:24:43 21° NW 20:24:43 21° NW
